TimeGMT,TemperatureF,Dew PointF,Humidity,Sea Level PressureIn,VisibilityMPH,Wind Direction,Wind SpeedMPH,Gust SpeedMPH,PrecipitationIn,Events,Conditions,WindDirDegrees,DateUTC
12:00 AM,47,39,65,29.85,9,West,27.6,,,Rain,Light Rain Showers,260,2012-12-30 00:00:00
3:00 AM,47,42,75,29.91,9,WSW,25.3,,,Rain,Light Rain Showers,240,2012-12-30 03:00:00
3:50 AM,44.6,41.0,87,29.92,6.2,West,23.0,-,N/A,Rain,Light Rain Showers,260,2012-12-30 03:50:00
4:20 AM,44.6,41.0,87,29.92,6.2,WSW,20.7,-,N/A,,Partly Cloudy,250,2012-12-30 04:20:00
4:50 AM,46.4,41.0,81,29.92,6.2,WSW,18.4,-,N/A,,Partly Cloudy,250,2012-12-30 04:50:00
5:20 AM,46.4,42.8,87,29.92,6.2,WSW,19.6,32.2,N/A,,Partly Cloudy,250,2012-12-30 05:20:00
5:50 AM,48.2,42.8,82,29.95,6.2,WSW,20.7,-,N/A,,Partly Cloudy,250,2012-12-30 05:50:00
6:00 AM,48,43,77,29.95,7,WSW,20.7,,,Rain,Light Rain Showers,250,2012-12-30 06:00:00
6:20 AM,48.2,41.0,76,29.95,6.2,WSW,25.3,-,N/A,Rain,Light Rain Showers,250,2012-12-30 06:20:00
6:50 AM,48.2,41.0,76,29.98,6.2,WSW,26.5,-,N/A,Rain,Light Rain Showers,250,2012-12-30 06:50:00
7:20 AM,48.2,41.0,76,29.98,6.2,West,24.2,35.7,N/A,,Partly Cloudy,260,2012-12-30 07:20:00
7:50 AM,48.2,42.8,82,29.98,6.2,WSW,23.0,34.5,N/A,,Scattered Clouds,250,2012-12-30 07:50:00
8:20 AM,48.2,42.8,82,30.01,6.2,West,25.3,36.8,N/A,,Scattered Clouds,260,2012-12-30 08:20:00
8:50 AM,48.2,42.8,82,30.01,6.2,WSW,25.3,-,N/A,Rain,Light Rain Showers,250,2012-12-30 08:50:00
9:00 AM,49,43,74,30.02,12,WSW,25.3,,,Rain,Light Rain Showers,250,2012-12-30 09:00:00
9:20 AM,48.2,42.8,82,30.01,6.2,WSW,25.3,-,N/A,,Scattered Clouds,250,2012-12-30 09:20:00
9:50 AM,50.0,44.6,82,30.04,6.2,WSW,25.3,39.1,N/A,,Partly Cloudy,250,2012-12-30 09:50:00
10:20 AM,50.0,46.4,87,30.04,6.2,WSW,24.2,-,N/A,,Scattered Clouds,250,2012-12-30 10:20:00
10:50 AM,50.0,44.6,82,30.04,6.2,WSW,24.2,-,N/A,,Partly Cloudy,240,2012-12-30 10:50:00
11:20 AM,50.0,44.6,82,30.06,6.2,WSW,26.5,-,N/A,,Partly Cloudy,250,2012-12-30 11:20:00
11:50 AM,50.0,44.6,82,30.06,6.2,WSW,24.2,-,N/A,,Partly Cloudy,250,2012-12-30 11:50:00
12:00 PM,51,45,73,30.07,16,WSW,24.2,,,,Partly Cloudy,250,2012-12-30 12:00:00
12:20 PM,50.0,44.6,82,30.04,6.2,WSW,23.0,-,N/A,,Partly Cloudy,250,2012-12-30 12:20:00
12:50 PM,51.8,46.4,82,30.06,6.2,WSW,21.9,-,N/A,,Partly Cloudy,250,2012-12-30 12:50:00
1:20 PM,50.0,46.4,87,30.06,6.2,WSW,19.6,-,N/A,,Partly Cloudy,240,2012-12-30 13:20:00
1:50 PM,51.8,46.4,82,30.06,6.2,WSW,20.7,-,N/A,,Scattered Clouds,240,2012-12-30 13:50:00
2:20 PM,51.8,46.4,82,30.06,6.2,WSW,23.0,-,N/A,,Partly Cloudy,250,2012-12-30 14:20:00
2:50 PM,51.8,46.4,82,30.06,6.2,WSW,23.0,-,N/A,,Mostly Cloudy,240,2012-12-30 14:50:00
3:00 PM,51,47,80,30.08,12,WSW,23.0,,,,Mostly Cloudy,240,2012-12-30 15:00:00
3:20 PM,50.0,46.4,87,30.06,6.2,WSW,19.6,-,N/A,,Mostly Cloudy,240,2012-12-30 15:20:00
3:50 PM,50.0,46.4,87,30.06,6.2,WSW,23.0,-,N/A,,Partly Cloudy,240,2012-12-30 15:50:00
4:20 PM,50.0,48.2,94,30.06,6.2,WSW,23.0,-,N/A,,Scattered Clouds,240,2012-12-30 16:20:00
4:50 PM,50.0,48.2,94,30.06,6.2,WSW,20.7,-,N/A,,Scattered Clouds,240,2012-12-30 16:50:00
5:20 PM,50.0,46.4,87,30.06,6.2,WSW,21.9,-,N/A,,Scattered Clouds,240,2012-12-30 17:20:00
5:50 PM,50.0,48.2,94,30.06,6.2,SW,18.4,-,N/A,,Partly Cloudy,230,2012-12-30 17:50:00
6:00 PM,50,47,87,30.09,12,SW,18.4,,,,Partly Cloudy,230,2012-12-30 18:00:00
6:20 PM,50.0,48.2,94,30.06,6.2,SW,18.4,-,N/A,,Scattered Clouds,230,2012-12-30 18:20:00
6:50 PM,50.0,48.2,94,30.06,6.2,SW,19.6,-,N/A,,Mostly Cloudy,230,2012-12-30 18:50:00
7:20 PM,50.0,48.2,94,30.06,6.2,SW,19.6,-,N/A,,Scattered Clouds,230,2012-12-30 19:20:00
7:50 PM,50.0,48.2,94,30.06,6.2,SW,19.6,31.1,N/A,,Scattered Clouds,220,2012-12-30 19:50:00
8:20 PM,50.0,48.2,94,30.06,6.2,SW,21.9,-,N/A,,Scattered Clouds,230,2012-12-30 20:20:00
8:50 PM,50.0,48.2,94,30.06,6.2,SW,20.7,-,N/A,,Partly Cloudy,220,2012-12-30 20:50:00
9:00 PM,50,48,89,30.09,12,SW,20.7,,,,Scattered Clouds,220,2012-12-30 21:00:00
9:20 PM,50.0,48.2,94,30.06,6.2,SW,17.3,-,N/A,,Partly Cloudy,220,2012-12-30 21:20:00
9:50 PM,50.0,48.2,94,30.06,6.2,SW,20.7,-,N/A,,Partly Cloudy,220,2012-12-30 21:50:00
10:20 PM,50.0,48.2,94,30.06,6.2,SW,19.6,-,N/A,,Partly Cloudy,220,2012-12-30 22:20:00